DW4078 Weather Reports


Display with metric or nautical units.
time (UTC)temp
F
wind
direction
speed
MPH
gust
MPH
rain 1hr
in
rain 24hr
in
rain mn
in
humidity
%
barometer
mb
20260510211502 59 42 2.0 9.0 0.00 0.32 0.00 34 1018.8
20260510211402 58 43 2.0 9.0 0.00 0.32 0.00 36 1018.9
20260510211102 58 67 2.0 7.0 0.00 0.32 0.00 37 1019.1
20260510211002 58 73 2.0 6.0 0.00 0.32 0.00 33 1019.0
20260510210802 58 66 3.0 6.0 0.00 0.32 0.00 33 1018.9
20260510210603 58 58 3.0 6.0 0.00 0.32 0.00 35 1018.8
20260510210402 58 35 3.0 8.0 0.00 0.32 0.00 34 1019.1
20260510210323 58 29 3.0 8.0 0.00 0.32 0.00 34 1018.8
20260510205602 58 27 3.0 8.0 0.00 0.32 0.00 33 1019.0
20260510205402 58 41 3.0 8.0 0.00 0.32 0.00 35 1018.9
20260510205003 58 22 3.0 7.0 0.00 0.32 0.00 34 1019.0
20260510204902 58 12 3.0 7.0 0.00 0.32 0.00 33 1018.9
20260510204802 58 13 3.0 7.0 0.00 0.32 0.00 35 1018.9
20260510204402 58 350 4.0 9.0 0.00 0.32 0.00 33 1018.8
20260510204202 58 357 3.0 9.0 0.00 0.32 0.00 34 1018.9
20260510204002 58 5 3.0 9.0 0.00 0.32 0.00 33 1018.9
20260510203803 58 2 3.0 9.0 0.00 0.32 0.00 34 1018.8
20260510203302 57 9 3.0 7.0 0.00 0.32 0.00 34 1018.8
20260510203223 57 354 3.0 7.0 0.00 0.32 0.00 34 1019.1
20260510203102 58 338 3.0 10.0 0.00 0.32 0.00 33 1018.9
20260510202802 58 338 3.0 10.0 0.00 0.32 0.00 34 1019.0
20260510202602 58 351 4.0 10.0 0.00 0.32 0.00 34 1019.1
20260510202402 57 345 4.0 10.0 0.00 0.32 0.00 35 1019.0
20260510202102 57 10 4.0 8.0 0.00 0.32 0.00 38 1019.1
20260510202002 57 13 4.0 8.0 0.00 0.32 0.00 37 1019.1
20260510201902 57 8 4.0 8.0 0.00 0.32 0.00 36 1019.0
20260510201702 57 3 4.0 8.0 0.00 0.32 0.00 39 1019.1
20260510201602 57 5 4.0 8.0 0.00 0.32 0.00 37 1019.1
20260510201502 57 23 4.0 9.0 0.00 0.32 0.00 37 1019.1
20260510201402 57 35 4.0 9.0 0.00 0.32 0.00 36 1019.1
20260510201102 58 46 3.0 9.0 0.00 0.32 0.00 37 1019.0
20260510200802 58 13 4.0 9.0 0.00 0.32 0.00 35 1018.9
20260510200602 58 360 4.0 9.0 0.00 0.32 0.00 39 1018.9
20260510200502 58 352 4.0 9.0 0.00 0.32 0.00 40 1019.0
20260510200402 58 351 4.0 9.0 0.00 0.32 0.00 36 1018.8
20260510200302 57 352 4.0 9.0 0.00 0.32 0.00 37 1018.9
20260510195902 57 13 4.0 9.0 0.00 0.32 0.00 38 1019.0
20260510195702 57 20 4.0 11.0 0.00 0.32 0.00 36 1019.1
20260510195623 57 23 4.0 11.0 0.00 0.32 0.00 35 1018.9
20260510195502 57 29 4.0 11.0 0.00 0.32 0.00 36 1018.9
20260510195402 57 32 4.0 11.0 0.00 0.32 0.00 36 1019.0
20260510195306 57 24 4.0 11.0 0.00 0.32 0.00 35 1019.1
20260510195202 57 24 4.0 11.0 0.00 0.32 0.00 36 1018.8
20260510195102 57 20 4.0 11.0 0.00 0.32 0.00 34 1018.9
20260510194802 58 6 4.0 11.0 0.00 0.32 0.00 33 1019.1
20260510194602 57 344 4.0 9.0 0.00 0.32 0.00 37 1018.9
20260510194503 57 342 4.0 9.0 0.00 0.32 0.00 37 1018.9
20260510194302 58 333 4.0 13.0 0.00 0.32 0.00 36 1019.0
20260510194102 57 331 4.0 13.0 0.00 0.32 0.00 35 1018.8
20260510193902 57 333 4.0 13.0 0.00 0.32 0.00 33 1018.8
20260510193803 57 355 4.0 13.0 0.00 0.32 0.00 35 1018.9
20260510193602 58 10 4.0 13.0 0.00 0.32 0.00 33 1018.7
20260510193402 58 18 4.0 10.0 0.00 0.32 0.00 31 1018.8
20260510193102 58 19 4.0 10.0 0.00 0.32 0.00 33 1018.9
20260510192902 58 15 4.0 10.0 0.00 0.32 0.00 37 1018.8
20260510192703 58 24 4.0 10.0 0.00 0.32 0.00 35 1018.9
20260510192306 58 35 4.0 10.0 0.00 0.32 0.00 32 1019.0
20260510192224 58 40 4.0 10.0 0.00 0.32 0.00 35 1018.9
20260510192102 58 37 3.0 9.0 0.00 0.32 0.00 33 1019.0
20260510191902 58 46 4.0 9.0 0.00 0.32 0.00 34 1019.0
20260510191802 58 43 4.0 9.0 0.00 0.32 0.00 39 1018.8
20260510191602 58 28 4.0 9.0 0.00 0.32 0.00 31 1019.0
20260510191303 57 323 4.0 9.0 0.00 0.32 0.00 33 1019.0
20260510190902 58 292 5.0 16.0 0.00 0.32 0.00 35 1018.8
20260510190702 58 301 5.0 16.0 0.00 0.32 0.00 32 1018.9
20260510190602 57 311 5.0 16.0 0.00 0.32 0.00 36 1018.9
20260510190402 57 302 5.0 16.0 0.00 0.32 0.00 32 1018.8
20260510190302 56 306 5.0 16.0 0.00 0.32 0.00 33 1018.7
20260510185902 58 303 5.0 14.0 0.00 0.32 0.00 32 1018.6
20260510185802 58 305 4.0 14.0 0.00 0.32 0.00 31 1018.8
20260510185602 57 292 4.0 10.0 0.00 0.32 0.00 34 1018.5
20260510185202 59 284 4.0 14.0 0.00 0.32 0.00 34 1018.3
20260510185105 59 287 4.0 14.0 0.00 0.32 0.00 35 1018.6
20260510185003 58 296 4.0 14.0 0.00 0.32 0.00 35 1018.6
20260510184702 56 322 5.0 15.0 0.00 0.32 0.00 31 1018.5
20260510184602 56 326 6.0 15.0 0.00 0.32 0.00 34 1018.5
20260510184402 57 345 5.0 15.0 0.00 0.32 0.00 34 1018.6
20260510184123 57 6 5.0 15.0 0.00 0.32 0.00 33 1018.4
20260510184002 57 5 4.0 15.0 0.00 0.32 0.00 33 1018.4
20260510183602 58 6 4.0 11.0 0.00 0.32 0.00 31 1018.3
20260510183503 60 11 4.0 11.0 0.00 0.32 0.00 30 1018.1
20260510183402 60 7 4.0 11.0 0.00 0.32 0.00 30 1018.2
20260510183323 59 11 4.0 11.0 0.00 0.32 0.00 32 1018.2
20260510183202 58 20 4.0 11.0 0.00 0.32 0.00 32 1018.3
20260510183102 58 30 4.0 11.0 0.00 0.32 0.00 31 1018.3
20260510182902 58 41 3.0 11.0 0.00 0.32 0.00 33 1018.5
20260510182802 58 60 4.0 11.0 0.00 0.32 0.00 32 1018.1
20260510182724 58 69 3.0 11.0 0.00 0.32 0.00 30 1018.3
20260510182624 58 48 3.0 10.0 0.00 0.32 0.00 38 1018.2
20260510182205 59 27 4.0 9.0 0.00 0.32 0.00 32 1018.4
20260510182102 59 14 4.0 9.0 0.00 0.32 0.00 32 1018.3
20260510181602 58 360 4.0 9.0 0.00 0.32 0.00 33 1018.1
20260510181403 58 357 4.0 9.0 0.00 0.32 0.00 36 1018.0
20260510181203 58 3 4.0 10.0 0.00 0.32 0.00 33 1018.0
20260510181102 58 12 4.0 10.0 0.00 0.32 0.00 31 1018.0
20260510181002 58 16 4.0 10.0 0.00 0.32 0.00 34 1018.2
20260510180703 58 10 4.0 10.0 0.00 0.32 0.00 34 1018.2
20260510180502 57 4 5.0 10.0 0.00 0.32 0.00 34 1018.1
20260510180302 58 352 5.0 10.0 0.00 0.32 0.00 33 1018.1
20260510180202 58 2 4.0 10.0 0.00 0.32 0.00 36 1018.2
20260510180003 57 5 4.0 10.0 0.00 0.32 0.00 38 1018.2
20260510175902 57 356 4.0 10.0 0.00 0.32 0.00 35 1017.9
20260510175803 57 1 4.0 10.0 0.00 0.32 0.00 36 1018.2
20260510175702 58 11 4.0 10.0 0.00 0.32 0.00 35 1018.2
20260510175602 59 359 4.0 10.0 0.00 0.32 0.00 36 1018.1
20260510175502 59 8 3.0 10.0 0.00 0.32 0.00 35 1018.1
20260510175305 59 11 3.0 8.0 0.00 0.32 0.00 36 1018.2
20260510175202 58 11 3.0 8.0 0.00 0.32 0.00 37 1018.2
20260510175102 58 350 4.0 10.0 0.00 0.32 0.00 43 1018.0
20260510174802 57 315 4.0 14.0 0.00 0.32 0.00 34 1018.0
20260510174602 58 304 4.0 14.0 0.00 0.32 0.00 35 1018.2
20260510174402 58 283 4.0 14.0 0.00 0.32 0.00 36 1018.1
20260510174123 58 255 4.0 14.0 0.00 0.32 0.00 36 1018.1
20260510174002 58 255 4.0 11.0 0.00 0.32 0.00 36 1018.1
20260510173903 58 261 4.0 11.0 0.00 0.32 0.00 36 1018.2
20260510173102 58 318 5.0 10.0 0.00 0.32 0.00 35 1018.3
20260510172902 57 314 5.0 10.0 0.00 0.32 0.00 36 1018.1
20260510172802 57 302 5.0 10.0 0.00 0.32 0.00 38 1018.3
20260510172723 58 306 5.0 10.0 0.00 0.32 0.00 34 1018.3
20260510172402 57 304 5.0 10.0 0.00 0.32 0.00 35 1018.4
20260510172202 57 305 5.0 10.0 0.00 0.32 0.00 38 1018.2
20260510172102 57 313 5.0 10.0 0.00 0.32 0.00 35 1018.3
20260510171902 57 326 4.0 10.0 0.00 0.32 0.00 33 1018.3
20260510171602 57 327 4.0 10.0 0.00 0.32 0.00 34 1018.2
20260510171524 57 327 4.0 10.0 0.00 0.32 0.00 33 1018.2
20260510171102 56 276 5.0 13.0 0.00 0.32 0.00 38 1018.2
20260510170923 56 273 5.0 13.0 0.00 0.32 0.00 38 1018.3
20260510170503 57 285 5.0 13.0 0.00 0.32 0.00 36 1018.5
20260510170002 58 347 4.0 11.0 0.00 0.32 0.00 37 1018.0
20260510165923 57 353 4.0 11.0 0.00 0.32 0.00 38 1018.1
20260510165802 57 358 4.0 11.0 0.00 0.32 0.00 38 1017.9
20260510165623 57 360 4.0 11.0 0.00 0.32 0.00 35 1018.1
20260510165402 57 6 4.0 11.0 0.00 0.32 0.00 39 1017.9
20260510165102 57 17 4.0 8.0 0.00 0.32 0.00 37 1018.2
20260510164902 57 17 4.0 8.0 0.00 0.32 0.00 40 1018.1
20260510164802 57 23 4.0 8.0 0.00 0.32 0.00 38 1018.1
20260510164602 58 12 4.0 9.0 0.00 0.32 0.00 39 1018.1
20260510164303 57 334 4.0 13.0 0.00 0.32 0.00 47 1018.0
20260510164102 57 314 5.0 13.0 0.00 0.32 0.00 43 1017.8
20260510164002 56 307 5.0 13.0 0.00 0.32 0.00 41 1018.0
20260510163823 56 299 5.0 13.0 0.00 0.32 0.00 41 1018.0
20260510163423 56 283 5.0 13.0 0.00 0.32 0.00 39 1017.9
20260510163302 56 293 5.0 11.0 0.00 0.32 0.00 37 1018.0
20260510163202 57 301 4.0 11.0 0.00 0.32 0.00 39 1017.9
20260510163102 57 305 4.0 11.0 0.00 0.32 0.00 37 1017.9
20260510163002 57 308 4.0 10.0 0.00 0.32 0.00 38 1017.8
20260510162603 57 302 4.0 10.0 0.00 0.32 0.00 40 1018.0
20260510162323 57 291 4.0 8.0 0.00 0.32 0.00 41 1017.8
20260510162102 56 261 4.0 11.0 0.00 0.32 0.00 45 1018.1
20260510161903 56 274 5.0 11.0 0.00 0.32 0.00 49 1017.8
20260510161702 56 271 5.0 11.0 0.00 0.32 0.00 42 1017.9
20260510161402 56 299 5.0 11.0 0.00 0.32 0.00 41 1017.7
20260510161102 56 300 5.0 11.0 0.00 0.32 0.00 44 1017.8
20260510161002 56 290 5.0 11.0 0.00 0.32 0.00 45 1018.0
20260510160924 56 284 5.0 11.0 0.00 0.32 0.00 46 1017.7
20260510160802 56 280 5.0 11.0 0.00 0.32 0.00 44 1017.8
20260510160624 56 279 4.0 11.0 0.00 0.32 0.00 44 1017.8
20260510160403 56 273 4.0 11.0 0.00 0.32 0.00 43 1017.8
20260510155902 57 15 3.0 8.0 0.00 0.32 0.00 43 1017.6
20260510155803 57 15 3.0 9.0 0.00 0.32 0.00 42 1017.6
20260510155603 57 25 3.0 9.0 0.00 0.32 0.00 44 1017.5
20260510155102 56 6 4.0 9.0 0.00 0.32 0.00 45 1017.7
20260510154902 56 347 4.0 9.0 0.00 0.32 0.00 40 1017.7
20260510154624 56 320 3.0 9.0 0.00 0.32 0.00 43 1017.5
20260510154402 56 317 3.0 9.0 0.00 0.32 0.00 42 1017.4
20260510154024 57 34 3.0 8.0 0.00 0.32 0.00 48 1017.4
20260510153702 56 26 3.0 10.0 0.00 0.32 0.00 50 1017.5
20260510153603 56 352 4.0 10.0 0.00 0.32 0.00 45 1017.4
20260510153403 56 310 4.0 10.0 0.00 0.32 0.00 44 1017.6
20260510153102 56 287 4.0 10.0 0.00 0.32 0.00 51 1017.4
20260510153023 56 291 4.0 10.0 0.00 0.32 0.00 53 1017.6
20260510152902 55 287 4.0 10.0 0.00 0.32 0.00 47 1017.3
20260510152823 55 295 4.0 10.0 0.00 0.32 0.00 47 1017.4
20260510152102 56 352 3.0 8.0 0.00 0.32 0.00 47 1017.5
20260510151903 55 359 3.0 8.0 0.00 0.32 0.00 46 1017.3
20260510151702 55 312 3.0 11.0 0.00 0.32 0.00 47 1017.5
20260510151602 55 323 4.0 11.0 0.00 0.32 0.00 47 1017.4
20260510151502 55 339 4.0 11.0 0.00 0.32 0.00 47 1017.3
20260510151102 55 360 4.0 11.0 0.00 0.32 0.00 49 1017.4
20260510150802 55 23 3.0 9.0 0.00 0.32 0.00 47 1017.3
20260510150702 55 14 3.0 10.0 0.00 0.32 0.00 46 1017.4
20260510150402 55 360 3.0 10.0 0.00 0.32 0.00 46 1017.4
20260510150002 55 343 3.0 10.0 0.00 0.32 0.00 49 1017.3
20260510145802 55 324 3.0 10.0 0.00 0.32 0.00 47 1017.2
20260510145502 55 321 3.0 7.0 0.00 0.32 0.00 47 1017.2
20260510145402 55 347 3.0 7.0 0.00 0.32 0.00 47 1017.1
20260510145324 55 5 3.0 7.0 0.00 0.32 0.00 49 1017.3
20260510145102 55 4 3.0 7.0 0.00 0.32 0.00 45 1017.2
20260510144902 54 4 3.0 7.0 0.00 0.32 0.00 49 1017.1
20260510144802 54 27 3.0 8.0 0.00 0.32 0.00 47 1017.0
20260510144724 54 28 3.0 8.0 0.00 0.32 0.00 51 1017.0
20260510144602 54 44 3.0 8.0 0.00 0.32 0.00 47 1017.2
20260510144103 54 19 3.0 8.0 0.00 0.32 0.00 49 1017.0
20260510143402 53 15 4.0 8.0 0.00 0.32 0.00 46 1017.2
20260510143303 53 18 3.0 8.0 0.00 0.32 0.00 47 1017.0
20260510143102 53 35 3.0 11.0 0.00 0.32 0.00 49 1017.1
20260510142902 53 43 3.0 11.0 0.00 0.32 0.00 52 1017.0
20260510142602 53 35 3.0 11.0 0.00 0.32 0.00 50 1017.0
20260510142502 53 34 3.0 11.0 0.00 0.32 0.00 49 1016.9
20260510142423 53 30 3.0 11.0 0.00 0.32 0.00 49 1017.1
20260510142202 53 23 4.0 11.0 0.00 0.32 0.00 49 1017.1
20260510142102 53 27 3.0 11.0 0.00 0.32 0.00 48 1016.9
20260510141902 53 29 3.0 9.0 0.00 0.32 0.00 51 1017.0
20260510141803 53 19 3.0 9.0 0.00 0.32 0.00 49 1017.1
20260510141602 53 37 3.0 10.0 0.00 0.32 0.00 50 1017.1
20260510141003 52 28 3.0 10.0 0.00 0.32 0.00 51 1016.9
20260510140802 52 19 3.0 10.0 0.00 0.32 0.00 54 1017.2
20260510140703 52 9 3.0 10.0 0.00 0.32 0.00 50 1017.1
20260510140602 52 8 3.0 10.0 0.00 0.32 0.00 51 1017.1
20260510140124 52 30 3.0 10.0 0.00 0.32 0.00 51 1017.1
20260510135902 51 22 3.0 10.0 0.00 0.32 0.00 51 1017.0
20260510135602 52 40 2.0 7.0 0.00 0.32 0.00 51 1017.1
20260510135305 51 33 3.0 7.0 0.00 0.32 0.00 52 1017.2
20260510134602 51 29 3.0 7.0 0.00 0.32 0.00 55 1017.2
20260510134402 51 38 3.0 9.0 0.00 0.32 0.00 55 1017.1
20260510134003 51 23 4.0 9.0 0.00 0.32 0.00 53 1016.8
20260510133902 51 22 4.0 9.0 0.00 0.32 0.00 56 1017.1
20260510133702 50 17 4.0 9.0 0.00 0.32 0.00 59 1016.9
20260510133602 50 24 4.0 9.0 0.00 0.32 0.00 57 1016.7
20260510133402 50 16 4.0 9.0 0.00 0.32 0.00 56 1016.7
20260510133102 50 23 4.0 9.0 0.00 0.32 0.00 56 1016.7
20260510132602 50 35 2.0 8.0 0.00 0.32 0.00 58 1016.8
20260510132202 49 48 2.0 7.0 0.00 0.32 0.00 60 1016.6
20260510132102 49 54 2.0 7.0 0.00 0.32 0.00 62 1016.6
20260510131823 49 58 2.0 7.0 0.00 0.32 0.00 63 1016.6
20260510131602 49 54 2.0 7.0 0.00 0.32 0.00 61 1016.6
20260510131502 49 57 2.0 7.0 0.00 0.32 0.00 60 1016.6
20260510131402 49 58 1.0 7.0 0.00 0.32 0.00 61 1016.5
20260510131302 49 62 1.0 4.0 0.00 0.32 0.00 64 1016.6
20260510131202 49 67 1.0 4.0 0.00 0.32 0.00 63 1016.5
20260510131102 49 60 1.0 4.0 0.00 0.32 0.00 63 1016.4
20260510130524 49 27 2.0 8.0 0.00 0.32 0.00 64 1016.2
20260510130403 49 32 2.0 8.0 0.00 0.32 0.00 65 1016.1
20260510125502 49 19 4.0 9.0 0.00 0.32 0.00 63 1016.1
20260510125423 49 19 4.0 9.0 0.00 0.32 0.00 63 1016.1
20260510125103 49 12 4.0 9.0 0.00 0.32 0.00 62 1016.1
20260510125002 49 8 4.0 9.0 0.00 0.32 0.00 62 1016.0
20260510124902 49 8 4.0 9.0 0.00 0.32 0.00 63 1016.0
20260510124724 48 12 4.0 9.0 0.00 0.32 0.00 62 1016.0
20260510124602 48 12 4.0 9.0 0.00 0.32 0.00 63 1016.0
20260510124502 48 16 4.0 9.0 0.00 0.32 0.00 65 1016.1
20260510124424 48 16 4.0 9.0 0.00 0.32 0.00 65 1016.0
20260510124002 48 35 3.0 10.0 0.00 0.32 0.00 70 1016.0
20260510123803 48 37 3.0 10.0 0.00 0.32 0.00 68 1015.7
20260510123403 48 52 2.0 10.0 0.00 0.32 0.00 70 1015.9
20260510123102 48 58 2.0 8.0 0.00 0.32 0.00 73 1016.0
20260510122923 48 49 2.0 8.0 0.00 0.32 0.00 75 1016.0
20260510122802 48 46 2.0 8.0 0.00 0.32 0.00 74 1015.7
20260510122702 48 44 2.0 8.0 0.00 0.32 0.00 74 1015.9
20260510122602 48 45 2.0 8.0 0.00 0.32 0.00 74 1015.7
20260510122524 48 47 2.0 8.0 0.00 0.32 0.00 74 1015.7
20260510122102 48 41 2.0 6.0 0.00 0.32 0.00 74 1015.9
20260510122024 48 31 2.0 6.0 0.00 0.32 0.00 73 1015.7
20260510121702 48 36 2.0 8.0 0.00 0.32 0.00 75 1016.0
20260510121602 48 35 2.0 8.0 0.00 0.32 0.00 74 1015.5
20260510121502 48 33 2.0 8.0 0.00 0.32 0.00 75 1015.6
20260510121123 48 34 2.0 8.0 0.00 0.32 0.00 75 1015.5
20260510120902 48 55 2.0 4.0 0.00 0.32 0.00 78 1015.3
20260510120602 48 36 2.0 6.0 0.00 0.32 0.00 76 1015.5
20260510120503 48 36 2.0 6.0 0.00 0.32 0.00 77 1015.3
20260510120402 48 50 2.0 6.0 0.00 0.32 0.00 77 1015.1
20260510120003 48 51 2.0 6.0 0.00 0.32 0.00 77 1015.1
20260510115803 48 51 2.0 7.0 0.00 0.32 0.00 78 1015.2
20260510115602 48 50 2.0 7.0 0.00 0.32 0.00 80 1015.3
20260510115402 47 41 2.0 7.0 0.00 0.32 0.00 79 1015.3
20260510115324 47 43 2.0 7.0 0.00 0.32 0.00 80 1015.0
20260510115103 47 30 2.0 7.0 0.00 0.32 0.00 80 1014.9
20260510114802 47 37 2.0 7.0 0.00 0.32 0.00 80 1014.9
20260510114702 47 45 2.0 7.0 0.00 0.32 0.00 80 1014.6
20260510114603 47 50 2.0 7.0 0.00 0.32 0.00 80 1014.8
20260510114403 47 54 2.0 7.0 0.00 0.32 0.00 81 1014.6
20260510114303 47 56 2.0 7.0 0.00 0.32 0.00 81 1014.6
20260510114003 47 57 2.0 7.0 0.00 0.32 0.00 82 1014.7
20260510113903 47 54 2.0 7.0 0.00 0.32 0.00 82 1014.7
20260510113803 47 54 2.0 7.0 0.00 0.32 0.00 83 1014.7
20260510113603 47 49 2.0 7.0 0.00 0.32 0.00 82 1014.7
20260510113203 47 42 2.0 7.0 0.00 0.32 0.00 82 1014.3
20260510113124 47 39 2.0 7.0 0.00 0.32 0.00 82 1014.5
20260510112702 47 42 2.0 6.0 0.00 0.32 0.00 83 1014.4
20260510112602 47 39 2.0 6.0 0.00 0.32 0.00 83 1014.3
20260510112502 47 43 2.0 6.0 0.00 0.32 0.00 84 1014.3
20260510112102 47 55 2.0 4.0 0.00 0.32 0.00 85 1014.4
20260510111924 47 53 2.0 4.0 0.00 0.32 0.00 86 1014.3
20260510111602 47 67 1.0 3.0 0.00 0.32 0.00 87 1014.3
20260510111503 47 69 1.0 2.0 0.00 0.32 0.00 87 1014.3
20260510111402 46 70 1.0 2.0 0.00 0.32 0.00 87 1014.1
20260510111102 46 66 1.0 4.0 0.00 0.32 0.00 87 1014.2
20260510111003 46 68 1.0 4.0 0.00 0.32 0.00 87 1014.2
20260510110903 46 72 1.0 4.0 0.00 0.32 0.00 88 1014.2
20260510110803 46 73 1.0 4.0 0.00 0.32 0.00 88 1014.0
20260510110702 46 72 1.0 4.0 0.00 0.32 0.00 88 1013.9
20260510110424 46 77 1.0 4.0 0.00 0.32 0.00 88 1014.1
20260510105903 46 91 1.0 2.0 0.00 0.32 0.00 90 1013.7
20260510105802 46 93 0.0 2.0 0.00 0.32 0.00 90 1013.8
20260510105603 45 89 0.0 2.0 0.00 0.32 0.00 90 1013.7
20260510105423 45 82 1.0 2.0 0.00 0.32 0.00 90 1013.8
20260510105306 45 80 1.0 3.0 0.00 0.32 0.00 91 1013.8
20260510105202 45 75 1.0 3.0 0.00 0.32 0.00 91 1013.6
20260510105102 45 74 1.0 3.0 0.00 0.32 0.00 91 1013.5
20260510105024 45 74 1.0 3.0 0.00 0.32 0.00 91 1013.5
20260510104702 45 71 1.0 3.0 0.00 0.32 0.00 91 1013.5
20260510104603 45 71 0.0 3.0 0.00 0.32 0.00 92 1013.6
20260510104424 45 73 0.0 3.0 0.00 0.32 0.00 92 1013.4
20260510104102 45 88 0.0 2.0 0.00 0.32 0.00 92 1013.4
20260510103902 45 0 0.0 0.0 0.00 0.32 0.00 92 1013.5
20260510103403 45 0 0.0 0.0 0.00 0.32 0.00 92 1013.4
20260510103303 45 0 0.0 0.0 0.00 0.32 0.00 92 1013.5
20260510103202 45 0 0.0 0.0 0.00 0.32 0.00 92 1013.3
20260510103103 45 0 0.0 0.0 0.00 0.32 0.00 92 1013.2
20260510102802 45 0 0.0 0.0 0.00 0.32 0.00 92 1013.1
20260510102703 45 0 0.0 0.0 0.00 0.32 0.00 92 1013.0
20260510102503 45 0 0.0 0.0 0.00 0.32 0.00 92 1013.1
20260510102404 45 0 0.0 0.0 0.00 0.32 0.00 92 1013.0
20260510102305 45 0 0.0 0.0 0.00 0.32 0.00 92 1013.1
20260510102202 45 0 0.0 0.0 0.00 0.32 0.00 92 1013.0
20260510102003 45 0 0.0 0.0 0.00 0.32 0.00 92 1012.9
20260510101803 45 0 0.0 0.0 0.00 0.32 0.00 92 1013.1
20260510101702 45 0 0.0 0.0 0.00 0.32 0.00 93 1012.8
20260510101603 45 0 0.0 0.0 0.00 0.32 0.00 93 1012.9
20260510101503 45 0 0.0 0.0 0.00 0.32 0.00 93 1012.9
20260510101302 45 0 0.0 0.0 0.00 0.32 0.00 93 1013.1
20260510101203 45 0 0.0 0.0 0.00 0.32 0.00 93 1013.0
20260510101103 45 0 0.0 0.0 0.00 0.32 0.00 93 1013.1
20260510100903 45 0 0.0 0.0 0.00 0.32 0.00 93 1013.0
20260510100802 45 0 0.0 0.0 0.00 0.32 0.00 93 1013.2
20260510100603 45 94 0.0 1.0 0.00 0.32 0.00 93 1013.0
20260510100402 45 79 0.0 2.0 0.00 0.32 0.00 93 1012.9
20260510100202 45 83 0.0 2.0 0.00 0.32 0.00 93 1012.8
20260510095923 45 83 1.0 2.0 0.00 0.32 0.00 94 1012.7
20260510095802 45 83 1.0 2.0 0.00 0.32 0.00 94 1012.8
20260510095723 45 83 1.0 2.0 0.00 0.32 0.00 94 1012.7
20260510095602 45 82 1.0 2.0 0.00 0.32 0.00 94 1012.5
20260510095305 45 86 0.0 2.0 0.00 0.32 0.00 94 1012.5
20260510095102 45 84 0.0 2.0 0.00 0.32 0.00 94 1012.8
20260510094902 45 85 0.0 1.0 0.00 0.32 0.00 94 1012.7
20260510094503 45 85 0.0 1.0 0.00 0.32 0.00 94 1012.8
20260510094303 45 85 0.0 1.0 0.00 0.32 0.00 94 1012.8
20260510094003 45 85 0.0 1.0 0.00 0.32 0.00 94 1012.9
20260510093803 45 88 0.0 1.0 0.00 0.32 0.00 94 1012.6
20260510093603 45 88 0.0 1.0 0.00 0.32 0.00 94 1012.6
20260510093424 45 88 0.0 1.0 0.00 0.32 0.00 94 1012.5
20260510093303 45 88 0.0 1.0 0.00 0.32 0.00 94 1012.5
20260510093103 45 97 0.0 1.0 0.00 0.32 0.00 94 1012.6
20260510093024 45 97 0.0 1.0 0.00 0.32 0.00 94 1012.5
20260510092903 45 0 0.0 0.0 0.00 0.32 0.00 94 1012.5
20260510092824 45 0 0.0 0.0 0.00 0.32 0.00 94 1012.5
20260510092703 45 0 0.0 0.0 0.00 0.32 0.00 94 1012.3
20260510092103 45 0 0.0 0.0 0.00 0.32 0.00 94 1012.3
20260510091903 45 0 0.0 0.0 0.00 0.32 0.00 94 1012.4
20260510091802 45 0 0.0 0.0 0.00 0.32 0.00 94 1012.3
20260510091624 45 0 0.0 0.0 0.00 0.32 0.00 94 1012.4
20260510091503 45 0 0.0 0.0 0.00 0.32 0.00 93 1012.3
20260510091402 45 0 0.0 0.0 0.00 0.32 0.00 93 1012.3
20260510091202 45 0 0.0 0.0 0.00 0.32 0.00 93 1012.0
20260510091103 45 0 0.0 0.0 0.00 0.32 0.00 93 1012.3
20260510090924 45 0 0.0 0.0 0.00 0.32 0.00 93 1012.0
20260510090723 45 0 0.0 0.0 0.00 0.32 0.00 93 1012.0
20260510090602 45 0 0.0 0.0 0.00 0.32 0.00 93 1011.9
20260510090402 45 0 0.0 0.0 0.00 0.32 0.00 93 1011.8
20260510090302 45 0 0.0 0.0 0.00 0.32 0.00 93 1011.8
20260510090003 46 0 0.0 0.0 0.00 0.32 0.00 93 1011.8
20260510085924 46 0 0.0 0.0 0.00 0.32 0.00 93 1011.8
20260510085803 46 0 0.0 0.0 0.00 0.32 0.00 93 1011.7
20260510085602 46 0 0.0 0.0 0.00 0.32 0.00 93 1011.8
20260510085503 46 0 0.0 0.0 0.00 0.32 0.00 92 1011.6
20260510085402 46 0 0.0 0.0 0.00 0.32 0.00 92 1011.5
20260510084903 46 0 0.0 0.0 0.00 0.32 0.00 91 1011.7
20260510084503 46 0 0.0 0.0 0.00 0.32 0.00 91 1011.7
20260510083903 47 0 0.0 0.0 0.00 0.32 0.00 91 1011.5
20260510083502 47 0 0.0 0.0 0.00 0.32 0.00 90 1011.3
20260510083403 47 0 0.0 0.0 0.00 0.32 0.00 90 1011.3
20260510083303 47 0 0.0 0.0 0.00 0.32 0.00 90 1011.4
20260510082903 47 0 0.0 0.0 0.00 0.32 0.00 89 1011.5
20260510082603 47 0 0.0 0.0 0.00 0.32 0.00 88 1011.6
20260510082423 47 0 0.0 0.0 0.00 0.32 0.00 88 1011.4
20260510082324 48 0 0.0 0.0 0.00 0.32 0.00 88 1011.6
20260510082203 48 0 0.0 0.0 0.00 0.32 0.00 88 1011.4
20260510082102 48 0 0.0 0.0 0.00 0.32 0.00 87 1011.4
20260510081703 48 0 0.0 0.0 0.00 0.32 0.00 86 1011.5
20260510081603 48 0 0.0 0.0 0.00 0.32 0.00 87 1011.3
20260510081402 48 0 0.0 0.0 0.00 0.32 0.00 86 1011.5
20260510081302 48 0 0.0 0.0 0.00 0.32 0.00 86 1011.3
20260510081103 48 0 0.0 0.0 0.00 0.32 0.00 86 1011.1
20260510081003 48 0 0.0 0.0 0.00 0.32 0.00 85 1011.3
20260510080824 48 0 0.0 0.0 0.00 0.32 0.00 84 1011.2
20260510080203 49 0 0.0 0.0 0.00 0.32 0.00 83 1011.2
20260510080003 49 101 0.0 1.0 0.00 0.32 0.00 82 1010.9
20260510075703 49 89 0.0 1.0 0.00 0.32 0.00 81 1010.8
20260510075603 49 89 0.0 1.0 0.00 0.32 0.00 81 1010.8
20260510075403 49 89 0.0 2.0 0.00 0.32 0.00 80 1011.0
20260510075306 49 88 0.0 2.0 0.00 0.32 0.00 80 1010.8
20260510075103 50 88 0.0 2.0 0.00 0.32 0.00 80 1010.8
20260510074903 50 86 0.0 2.0 0.00 0.32 0.00 80 1010.9
20260510074703 50 86 0.0 2.0 0.00 0.32 0.00 80 1010.8
20260510074503 50 81 1.0 2.0 0.00 0.32 0.00 79 1010.9
20260510074403 50 76 1.0 3.0 0.00 0.32 0.00 79 1010.7
20260510074103 50 64 1.0 4.0 0.00 0.32 0.00 79 1010.8
20260510074002 50 65 1.0 4.0 0.00 0.32 0.00 79 1010.7
20260510073703 51 61 1.0 4.0 0.00 0.32 0.00 78 1010.6
20260510073602 51 62 1.0 4.0 0.00 0.32 0.00 79 1010.4
20260510073102 51 53 1.0 7.0 0.00 0.32 0.00 79 1010.6
20260510072902 51 54 1.0 7.0 0.00 0.32 0.00 79 1010.5
20260510072424 51 46 1.0 7.0 0.00 0.32 0.00 79 1010.5
20260510072203 51 64 1.0 4.0 0.00 0.32 0.00 81 1010.5
20260510072102 51 59 1.0 4.0 0.00 0.32 0.00 81 1010.4
20260510072003 50 59 1.0 4.0 0.00 0.32 0.00 81 1010.5
20260510071903 50 59 1.0 4.0 0.00 0.32 0.00 81 1010.5
20260510071603 50 55 1.0 3.0 0.00 0.32 0.00 82 1010.3
20260510071503 50 56 1.0 4.0 0.00 0.32 0.00 82 1010.3
20260510071303 50 61 1.0 6.0 0.00 0.32 0.00 82 1010.4
20260510070903 51 48 1.0 6.0 0.00 0.32 0.00 82 1010.3
20260510070624 51 46 1.0 6.0 0.00 0.32 0.00 82 1010.4
20260510070302 50 42 1.0 4.0 0.00 0.32 0.00 83 1010.3
20260510070202 51 51 1.0 3.0 0.00 0.32 0.00 84 1010.3
20260510070003 51 62 1.0 3.0 0.00 0.32 0.00 83 1010.3
20260510065902 51 57 1.0 4.0 0.00 0.32 0.00 83 1010.2
20260510065802 51 54 2.0 4.0 0.00 0.32 0.00 83 1010.1
20260510065306 51 68 2.0 7.0 0.00 0.32 0.00 83 1010.1
20260510065202 50 68 2.0 7.0 0.00 0.32 0.00 83 1009.9
20260510064902 50 76 1.0 7.0 0.00 0.33 0.00 84 1009.9
20260510064803 50 85 1.0 7.0 0.00 0.33 0.00 85 1009.9
20260510064603 51 85 1.0 6.0 0.00 0.33 0.00 85 1010.0
20260510064303 51 87 1.0 3.0 0.00 0.33 0.00 86 1009.9
20260510064203 51 83 1.0 3.0 0.00 0.33 0.00 86 1009.9
20260510064103 51 87 1.0 4.0 0.00 0.33 0.00 86 1009.9
20260510064003 51 85 1.0 7.0 0.00 0.33 0.00 86 1010.0
20260510063924 51 86 1.0 7.0 0.00 0.33 0.00 86 1009.9
20260510063803 51 83 1.0 7.0 0.00 0.33 0.00 86 1009.9
20260510063603 51 81 2.0 7.0 0.00 0.33 0.00 87 1010.0
20260510063403 51 74 2.0 7.0 0.00 0.33 0.00 87 1010.0
20260510063224 51 65 2.0 7.0 0.00 0.33 0.00 88 1010.0
20260510062803 52 51 2.0 6.0 0.00 0.33 0.00 89 1010.0
20260510062703 52 50 2.0 6.0 0.00 0.33 0.00 89 1009.9
20260510062603 52 48 2.0 6.0 0.00 0.33 0.00 89 1009.9
20260510062503 52 50 2.0 6.0 0.00 0.33 0.00 89 1010.0
20260510062306 52 51 2.0 6.0 0.00 0.33 0.00 89 1009.9
20260510062103 52 51 2.0 6.0 0.00 0.33 0.00 89 1009.9
20260510062002 52 56 2.0 6.0 0.00 0.33 0.00 90 1009.9
20260510061903 52 56 2.0 6.0 0.00 0.33 0.00 90 1009.9
20260510061824 52 50 2.0 6.0 0.00 0.33 0.00 90 1009.8
20260510061702 52 47 2.0 6.0 0.00 0.33 0.00 90 1010.0
20260510061603 52 45 2.0 6.0 0.00 0.33 0.00 90 1010.0
20260510061423 52 43 2.0 6.0 0.00 0.33 0.00 90 1009.9
20260510061303 53 44 2.0 6.0 0.00 0.33 0.00 90 1010.0
20260510061002 53 47 2.0 6.0 0.00 0.34 0.00 90 1009.8
20260510060903 53 51 2.0 6.0 0.00 0.34 0.00 90 1009.7
20260510060803 53 62 2.0 4.0 0.00 0.34 0.00 91 1009.9
20260510060602 53 59 2.0 4.0 0.00 0.34 0.00 90 1009.8
20260510060323 53 69 2.0 3.0 0.00 0.34 0.00 91 1009.7
20260510055903 53 63 1.0 3.0 0.00 0.34 0.00 90 1009.9
20260510055802 53 64 1.0 3.0 0.00 0.34 0.00 90 1009.5
20260510055703 53 66 1.0 3.0 0.00 0.34 0.00 90 1009.8
20260510055603 53 72 1.0 3.0 0.00 0.35 0.00 90 1009.6
20260510055403 53 66 1.0 6.0 0.00 0.36 0.00 90 1009.7
20260510055124 53 51 1.0 6.0 0.00 0.39 0.00 90 1009.5
20260510054824 54 29 2.0 7.0 0.00 0.40 0.00 90 1009.4
20260510054603 54 28 3.0 7.0 0.00 0.41 0.00 90 1009.8
20260510054524 54 28 3.0 7.0 0.00 0.41 0.00 90 1009.6
20260510054423 54 27 3.0 7.0 0.00 0.41 0.00 90 1009.5
20260510054303 54 33 3.0 7.0 0.00 0.41 0.00 90 1009.7
20260510054202 54 32 3.0 7.0 0.00 0.41 0.00 90 1009.7
20260510054102 54 35 3.0 7.0 0.00 0.41 0.00 90 1009.7
20260510054003 54 44 3.0 7.0 0.00 0.41 0.00 90 1009.4
20260510053603 54 26 3.0 11.0 0.00 0.41 0.00 91 1009.6
20260510053503 54 25 3.0 11.0 0.00 0.41 0.00 91 1009.4
20260510053424 54 27 3.0 11.0 0.00 0.41 0.00 91 1009.6
20260510053003 54 12 2.0 11.0 0.00 0.41 0.00 92 1009.2
20260510052902 54 10 2.0 11.0 0.00 0.41 0.00 92 1009.5
20260510052803 54 6 2.0 11.0 0.00 0.41 0.00 92 1009.5
20260510052602 54 85 0.0 4.0 0.00 0.41 0.00 93 1009.5
20260510052423 54 111 0.0 4.0 0.00 0.41 0.00 93 1009.7
20260510052306 54 127 0.0 2.0 0.00 0.41 0.00 93 1009.6
20260510052124 54 107 1.0 3.0 0.00 0.41 0.00 94 1009.5
20260510051803 54 71 1.0 3.0 0.00 0.41 0.00 94 1009.5
20260510051702 54 73 1.0 3.0 0.00 0.41 0.00 94 1009.2
20260510051602 54 73 1.0 3.0 0.00 0.41 0.00 94 1009.5
20260510051403 54 37 1.0 6.0 0.00 0.42 0.00 94 1009.5
20260510051203 54 27 2.0 6.0 0.00 0.42 0.00 94 1009.3
20260510051123 54 22 2.0 6.0 0.00 0.42 0.00 94 1009.2
20260510050802 53 21 3.0 7.0 0.00 0.42 0.00 94 1008.9
20260510050503 53 35 3.0 7.0 0.00 0.42 0.00 94 1008.9
20260510050403 53 52 2.0 7.0 0.00 0.42 0.00 94 1009.3
20260510050303 53 58 2.0 7.0 0.00 0.42 0.00 94 1009.2
20260510050203 53 71 2.0 7.0 0.00 0.42 0.00 94 1009.3
20260510045703 53 135 1.0 6.0 0.00 0.42 0.00 94 1008.2
20260510045603 53 130 1.0 3.0 0.00 0.42 0.00 94 1008.1
20260510045503 53 127 1.0 3.0 0.00 0.43 0.00 94 1008.2
20260510045306 53 126 1.0 3.0 0.00 0.43 0.00 94 1007.9
20260510045203 53 126 1.0 3.0 0.00 0.43 0.00 94 1007.9
20260510044903 53 124 1.0 3.0 0.01 0.44 0.00 94 1007.9
20260510044802 54 127 1.0 4.0 0.01 0.44 0.00 94 1007.8
20260510044703 54 129 2.0 4.0 0.01 0.44 0.00 94 1007.9
20260510044602 54 129 1.0 4.0 0.01 0.44 0.00 94 1007.8
20260510044524 54 131 2.0 4.0 0.01 0.44 0.00 94 1007.8
20260510044103 53 129 1.0 4.0 0.01 0.44 0.00 94 1007.9
20260510043503 53 119 1.0 2.0 0.01 0.44 0.00 94 1007.8
20260510043403 53 118 1.0 2.0 0.01 0.44 0.00 93 1007.7
20260510043303 53 117 0.0 2.0 0.01 0.44 0.00 93 1007.8
20260510042903 53 115 0.0 2.0 0.01 0.45 0.00 93 1007.6
20260510042703 54 117 0.0 2.0 0.01 0.45 0.00 93 1007.3
20260510042403 54 121 0.0 2.0 0.02 0.46 0.00 92 1007.5
20260510042305 54 120 0.0 2.0 0.02 0.46 0.00 92 1007.6
20260510042203 54 121 0.0 2.0 0.02 0.46 0.00 92 1007.8
20260510042103 54 120 0.0 2.0 0.02 0.46 0.00 92 1007.6
20260510041902 54 117 0.0 2.0 0.02 0.46 0.00 92 1007.7
20260510041624 54 115 0.0 2.0 0.02 0.46 0.00 91 1007.5
20260510041103 55 125 0.0 3.0 0.02 0.47 0.00 90 1007.5
20260510040802 55 143 1.0 8.0 0.02 0.47 0.00 90 1007.5
20260510040703 55 147 1.0 8.0 0.02 0.47 0.00 89 1007.4
20260510040524 55 152 1.0 8.0 0.02 0.47 0.00 89 1007.5
20260510040403 55 149 2.0 8.0 0.02 0.47 0.00 89 1007.5
20260510040302 55 152 2.0 8.0 0.02 0.47 0.00 89 1007.4
20260510035803 55 156 2.0 8.0 0.02 0.47 0.47 90 1007.6
20260510035603 55 145 2.0 6.0 0.02 0.47 0.47 91 1007.6
20260510035503 55 144 2.0 6.0 0.02 0.47 0.47 91 1007.6
20260510035306 55 143 2.0 6.0 0.02 0.47 0.47 92 1007.8
20260510035103 55 145 2.0 6.0 0.02 0.47 0.47 91 1007.7
20260510034802 55 139 2.0 6.0 0.01 0.47 0.46 91 1008.0
20260510034702 55 140 2.0 6.0 0.01 0.47 0.46 91 1007.8
20260510034103 55 140 1.0 6.0 0.01 0.47 0.46 90 1007.7
20260510033803 55 143 1.0 6.0 0.01 0.47 0.46 90 1007.7
20260510033703 55 147 1.0 6.0 0.01 0.47 0.46 90 1007.8
20260510033603 55 148 2.0 6.0 0.01 0.47 0.46 89 1007.5
20260510033402 55 150 2.0 6.0 0.02 0.47 0.46 89 1008.0
20260510032903 55 148 2.0 6.0 0.04 0.47 0.46 89 1007.9
20260510032603 55 153 2.0 6.0 0.04 0.47 0.46 89 1007.8
20260510032403 55 154 2.0 4.0 0.03 0.46 0.45 89 1007.9
20260510032306 55 155 2.0 4.0 0.03 0.46 0.45 89 1007.7
20260510032103 55 155 2.0 4.0 0.03 0.47 0.45 89 1007.7
20260510032003 55 155 2.0 4.0 0.03 0.47 0.45 89 1007.6
20260510031703 54 146 2.0 4.0 0.03 0.47 0.45 91 1007.8
20260510031103 54 115 0.0 4.0 0.03 0.47 0.45 92 1007.6
20260510030803 54 110 0.0 2.0 0.03 0.48 0.45 92 1007.5
20260510030603 54 113 0.0 2.0 0.03 0.48 0.45 92 1007.5
20260510030403 54 114 1.0 2.0 0.03 0.48 0.45 92 1007.4
20260510030302 54 115 1.0 2.0 0.03 0.48 0.45 92 1007.4
20260510030203 54 115 1.0 2.0 0.04 0.48 0.45 92 1007.5
20260510025824 54 117 1.0 2.0 0.04 0.48 0.45 91 1007.3
20260510025703 54 118 1.0 2.0 0.04 0.48 0.45 91 1007.5
20260510025403 55 117 0.0 2.0 0.04 0.48 0.45 91 1007.5
20260510025305 55 116 0.0 2.0 0.04 0.48 0.45 90 1007.5
20260510025202 55 119 1.0 4.0 0.04 0.48 0.45 90 1007.4
20260510024803 55 181 2.0 11.0 0.04 0.48 0.45 90 1007.2
20260510024703 55 199 2.0 11.0 0.04 0.48 0.45 90 1007.3
20260510024603 55 201 2.0 11.0 0.04 0.48 0.45 89 1007.6
20260510024402 55 201 4.0 11.0 0.04 0.48 0.45 89 1007.7
20260510024324 55 202 4.0 11.0 0.04 0.48 0.45 89 1007.7
20260510024203 55 202 4.0 11.0 0.04 0.48 0.45 89 1007.9
20260510024103 55 197 4.0 11.0 0.04 0.48 0.45 90 1008.0
20260510023823 55 191 4.0 11.0 0.04 0.48 0.45 91 1008.0
20260510023603 54 183 4.0 11.0 0.04 0.48 0.45 92 1008.0
20260510023503 54 179 4.0 11.0 0.04 0.48 0.45 93 1008.0
20260510023203 54 163 3.0 9.0 0.03 0.47 0.44 94 1008.1
20260510023103 54 164 2.0 9.0 0.02 0.46 0.43 94 1008.2
20260510023003 54 162 2.0 9.0 0.01 0.45 0.42 95 1008.6
20260510022703 54 170 1.0 9.0 0.01 0.45 0.42 95 1008.2
20260510022602 54 167 1.0 9.0 0.01 0.45 0.42 95 1008.1
20260510022403 54 144 0.0 2.0 0.01 0.45 0.42 95 1007.9
20260510022002 54 118 0.0 1.0 0.01 0.45 0.42 95 1007.4
20260510021924 54 118 0.0 2.0 0.01 0.45 0.42 95 1007.4
20260510021503 54 119 1.0 3.0 0.01 0.45 0.42 95 1007.2
20260510021402 54 120 1.0 3.0 0.01 0.45 0.42 95 1007.2
20260510021303 54 120 1.0 3.0 0.01 0.45 0.42 95 1007.2
20260510021103 54 123 1.0 3.0 0.01 0.45 0.42 95 1007.2
20260510021003 54 123 1.0 3.0 0.01 0.45 0.42 95 1007.1
20260510020903 54 122 1.0 3.0 0.01 0.45 0.42 95 1007.2
20260510020603 54 123 1.0 3.0 0.01 0.45 0.42 95 1007.2
20260510020303 54 122 1.0 3.0 0.01 0.45 0.42 95 1007.3
20260510015902 54 115 0.0 2.0 0.00 0.44 0.41 95 1007.4
20260510015724 54 112 0.0 1.0 0.00 0.44 0.41 94 1007.4
20260510015603 54 123 0.0 2.0 0.00 0.44 0.41 94 1007.5
20260510015103 54 123 1.0 3.0 0.00 0.44 0.41 94 1007.1
20260510014923 54 122 1.0 3.0 0.00 0.44 0.41 94 1007.2
20260510014802 54 122 1.0 3.0 0.00 0.44 0.41 94 1007.2
20260510014624 54 120 1.0 3.0 0.00 0.44 0.41 94 1007.2
20260510014403 54 117 1.0 3.0 0.00 0.44 0.41 94 1007.1
20260510014203 54 117 1.0 3.0 0.00 0.44 0.41 94 1006.9
20260510014102 54 118 1.0 3.0 0.00 0.44 0.41 94 1007.1
20260510014024 54 119 1.0 3.0 0.00 0.44 0.41 94 1007.2
20260510013903 54 116 1.0 3.0 0.00 0.44 0.41 94 1007.5
20260510013803 54 115 1.0 3.0 0.00 0.44 0.41 94 1007.2
20260510013103 54 111 1.0 3.0 0.00 0.44 0.41 94 1007.2
20260510013003 54 111 1.0 3.0 0.00 0.44 0.41 94 1007.3
20260510012703 54 105 1.0 2.0 0.00 0.45 0.41 94 1007.2
20260510012403 54 102 0.0 2.0 0.00 0.45 0.41 94 1007.1
20260510012204 54 102 0.0 2.0 0.00 0.45 0.41 94 1007.2
20260510012103 54 102 0.0 2.0 0.00 0.45 0.41 94 1007.0
20260510011903 54 103 0.0 2.0 0.00 0.45 0.41 94 1006.9
20260510011802 54 103 0.0 2.0 0.00 0.45 0.41 94 1007.2
20260510011703 54 94 0.0 2.0 0.00 0.45 0.41 94 1007.2
20260510011602 54 97 0.0 2.0 0.00 0.45 0.41 94 1007.1
20260510011303 54 99 0.0 2.0 0.00 0.45 0.41 94 1007.1
20260510011103 54 104 0.0 2.0 0.00 0.45 0.41 94 1007.1
20260510011024 54 106 1.0 2.0 0.00 0.45 0.41 94 1006.9
20260510010903 54 106 1.0 2.0 0.00 0.45 0.41 93 1006.9
20260510010703 54 107 1.0 2.0 0.00 0.45 0.41 93 1006.9
20260510010603 54 107 1.0 2.0 0.00 0.45 0.41 93 1006.9
20260510010403 54 110 1.0 2.0 0.00 0.45 0.41 93 1007.0
20260510010003 54 111 1.0 2.0 0.00 0.45 0.41 93 1006.9
20260510005603 55 116 0.0 2.0 0.00 0.46 0.41 92 1006.9
20260510005403 55 117 0.0 2.0 0.00 0.46 0.41 92 1006.8
20260510005203 55 121 0.0 2.0 0.00 0.46 0.41 92 1006.9
20260510004824 55 115 0.0 1.0 0.00 0.46 0.41 91 1006.9
20260510004602 55 114 0.0 1.0 0.00 0.46 0.41 91 1006.7
20260510004403 55 145 0.0 4.0 0.00 0.47 0.41 91 1006.7
20260510004303 55 148 0.0 4.0 0.00 0.47 0.41 90 1006.9
20260510003403 56 147 1.0 4.0 0.00 0.48 0.41 90 1006.8
20260510003202 56 145 1.0 4.0 0.00 0.48 0.41 90 1006.8
20260510002724 56 143 1.0 3.0 0.02 0.49 0.41 90 1006.7
20260510002603 56 141 1.0 3.0 0.02 0.49 0.41 90 1006.8
20260510002524 56 146 1.0 3.0 0.03 0.49 0.41 90 1006.9
20260510002423 56 146 1.0 3.0 0.03 0.49 0.41 90 1006.7
20260510001903 56 155 2.0 6.0 0.06 0.49 0.41 90 1006.8
20260510001803 56 153 2.0 6.0 0.06 0.49 0.41 90 1006.7
20260510001602 56 155 2.0 6.0 0.07 0.49 0.41 90 1006.8
20260510001403 56 153 2.0 6.0 0.08 0.50 0.41 90 1006.5
20260510001203 56 148 2.0 6.0 0.09 0.50 0.41 91 1006.7
20260510000803 56 140 1.0 4.0 0.12 0.50 0.41 91 1006.6
20260510000703 56 138 1.0 4.0 0.13 0.50 0.41 91 1006.6
20260510000624 56 137 1.0 4.0 0.14 0.50 0.41 91 1006.6
20260510000403 56 149 1.0 7.0 0.15 0.50 0.41 91 1006.8
20260510000304 56 151 2.0 7.0 0.17 0.50 0.41 91 1006.5
20260510000204 56 157 2.0 7.0 0.19 0.50 0.41 91 1006.6
20260510000003 56 154 2.0 7.0 0.20 0.50 0.41 91 1006.5
20260509235224 56 155 2.0 6.0 0.26 0.51 0.41 92 1006.8
20260509235003 56 154 1.0 6.0 0.26 0.51 0.41 92 1006.6
20260509234803 56 153 1.0 4.0 0.26 0.51 0.41 92 1006.6
20260509234603 56 153 1.0 4.0 0.26 0.52 0.41 92 1006.6
20260509234524 56 162 1.0 4.0 0.26 0.52 0.41 92 1006.8
20260509234324 56 179 2.0 8.0 0.26 0.52 0.41 92 1006.8
20260509234103 55 203 2.0 8.0 0.26 0.52 0.41 93 1006.5
20260509233702 55 208 3.0 9.0 0.26 0.53 0.41 92 1006.7
20260509233524 55 208 3.0 9.0 0.26 0.53 0.41 92 1006.6
20260509233424 55 219 4.0 10.0 0.26 0.53 0.41 92 1006.8
20260509233303 55 218 4.0 10.0 0.26 0.53 0.41 92 1006.8
20260509233124 55 221 4.0 11.0 0.25 0.52 0.41 92 1006.8
20260509232902 55 229 4.0 11.0 0.25 0.53 0.40 93 1007.0
20260509232803 55 239 4.0 13.0 0.24 0.52 0.39 93 1007.2
20260509232603 55 248 5.0 16.0 0.24 0.52 0.39 92 1007.2
20260509232003 55 257 4.0 16.0 0.20 0.48 0.35 92 1007.3
20260509231903 55 255 4.0 16.0 0.20 0.48 0.35 92 1007.4
20260509231603 55 244 2.0 13.0 0.19 0.48 0.34 92 1007.1
20260509231503 55 18 2.0 10.0 0.18 0.47 0.33 92 1007.0
20260509231424 55 9 2.0 11.0 0.18 0.47 0.33 92 1006.8
20260509231103 55 352 4.0 16.0 0.17 0.46 0.32 91 1006.3
20260509230903 55 348 5.0 16.0 0.16 0.45 0.31 91 1006.3
20260509230603 55 335 6.0 16.0 0.12 0.41 0.27 90 1006.6
20260509230203 56 319 6.0 19.0 0.07 0.36 0.22 87 1006.6
20260509230124 56 317 7.0 19.0 0.07 0.36 0.22 87 1006.7
20260509225624 60 320 7.0 19.0 0.00 0.29 0.16 79 1006.7
20260509225424 62 316 6.0 19.0 0.00 0.29 0.15 74 1006.4
20260509225305 65 296 5.0 19.0 0.00 0.29 0.15 69 1006.3
20260509225103 67 296 5.0 16.0 0.00 0.30 0.15 63 1006.3
20260509225003 68 262 4.0 9.0 0.00 0.30 0.15 59 1006.0
20260509224903 68 232 4.0 11.0 0.00 0.30 0.15 58 1005.5
20260509224703 68 212 4.0 11.0 0.00 0.31 0.15 56 1004.6
20260509224503 68 197 4.0 11.0 0.00 0.31 0.15 57 1004.4
20260509224403 68 191 4.0 11.0 0.00 0.31 0.15 57 1004.1
20260509224303 68 192 4.0 11.0 0.00 0.32 0.15 56 1004.2
20260509224103 68 190 4.0 11.0 0.00 0.32 0.15 55 1004.1
20260509223702 68 177 3.0 9.0 0.00 0.34 0.15 55 1003.9
20260509223603 68 178 3.0 9.0 0.00 0.34 0.15 55 1004.0
20260509223424 68 175 3.0 9.0 0.00 0.34 0.15 55 1003.9
20260509223124 68 164 3.0 11.0 0.00 0.34 0.15 55 1003.8
20260509223003 69 160 3.0 11.0 0.00 0.35 0.15 55 1004.0
20260509222903 69 152 3.0 11.0 0.00 0.35 0.15 55 1003.9
20260509222524 69 156 4.0 11.0 0.00 0.35 0.15 55 1004.2
20260509222403 69 164 4.0 11.0 0.00 0.35 0.15 55 1004.3
20260509222323 69 170 4.0 11.0 0.00 0.35 0.15 55 1004.2
20260509222103 69 195 4.0 14.0 0.00 0.36 0.15 54 1004.2
20260509222003 69 196 4.0 14.0 0.00 0.36 0.15 54 1004.1
20260509221924 69 199 5.0 18.0 0.00 0.36 0.15 53 1004.2
20260509221703 69 198 5.0 18.0 0.00 0.36 0.15 54 1004.3
20260509221603 69 201 6.0 18.0 0.00 0.36 0.15 54 1004.3
20260509221303 69 198 6.0 18.0 0.00 0.37 0.15 53 1004.2
20260509221103 69 191 6.0 18.0 0.00 0.37 0.15 53 1004.3
20260509221003 69 187 6.0 18.0 0.00 0.38 0.15 53 1004.1
20260509220602 69 186 5.0 16.0 0.00 0.39 0.15 53 1004.1
20260509220503 69 180 5.0 16.0 0.00 0.39 0.15 53 1004.0
20260509220403 69 183 6.0 16.0 0.00 0.39 0.15 53 1004.2
20260509220302 70 179 6.0 16.0 0.00 0.39 0.15 53 1004.2
20260509215903 70 192 6.0 18.0 0.00 0.39 0.15 53 1004.0
20260509215602 70 194 6.0 18.0 0.00 0.39 0.15 52 1004.0
20260509215424 71 193 6.0 18.0 0.00 0.39 0.15 53 1004.1
20260509215324 71 194 7.0 19.0 0.00 0.39 0.15 52 1004.1
20260509215103 71 187 7.0 19.0 0.00 0.39 0.15 52 1003.9
20260509214824 70 177 7.0 19.0 0.00 0.39 0.15 53 1003.8
20260509214603 70 174 7.0 19.0 0.00 0.39 0.15 52 1003.9
20260509214403 71 187 6.0 15.0 0.00 0.39 0.15 52 1004.1
20260509214303 71 184 6.0 15.0 0.00 0.39 0.15 52 1004.0
20260509214203 71 186 6.0 14.0 0.00 0.39 0.15 52 1004.0
20260509214103 71 192 6.0 14.0 0.00 0.39 0.15 52 1003.9
20260509213603 71 197 5.0 15.0 0.00 0.39 0.15 52 1004.0
20260509213403 71 184 5.0 15.0 0.00 0.39 0.15 53 1003.9
20260509213224 71 181 5.0 15.0 0.00 0.39 0.15 52 1004.1
20260509213003 71 181 5.0 15.0 0.00 0.39 0.15 53 1003.9
20260509212902 71 180 5.0 15.0 0.00 0.39 0.15 53 1004.2
20260509212803 71 186 5.0 15.0 0.00 0.39 0.15 52 1003.8
20260509212603 71 179 5.0 19.0 0.00 0.39 0.15 53 1004.0
20260509212403 71 175 6.0 19.0 0.00 0.39 0.15 53 1004.0
20260509211903 71 173 6.0 19.0 0.00 0.39 0.15 53 1004.0